Location: Iesi
(43.5167°N, 13.2333°E)
Time: 02:16:54
(UTC+00:00)

Cosmos 1441 Rocket - Pass Details

Date: 08 August 2020
Orbit: 497 x 540 km, 81.1° (Epoch: 27 September)

Event Time Altitude Azimuth Distance (km) Brightness Sun altitude
Exits shadow 19:31:52 - 186° (S) 2,622 6.5 -12.1°
Reaches altitude 10° 19:34:00 10° 186° (S) 1,733 5.6 -12.5°
Maximum altitude 19:37:47 81° 101° (E) 521 3.1 -13.0°
Drops below altitude 10° 19:41:35 10° 12° (NNE) 1,725 6.2 -13.6°
Sets 19:43:42 0° 12° (NNE) 2,610 7.2 -13.9°
